Time,TemperatureF,DewpointF,PressureIn,WindDirection,WindDirectionDegrees,WindSpeedMPH,WindSpeedGustMPH,Humidity,HourlyPrecipIn,Conditions,Clouds,dailyrainin,SoftwareType,DateUTC
2013-11-01 00:13:00,63.0,60.6,28.62,WSW,247,7.8,-999.0,92,-99.99,,,0.00,Acu-Link.com,2013-11-01 04:13:00,
2013-11-01 00:28:00,62.8,61.0,28.61,NNE,22,6.8,-999.0,94,-99.99,,,0.00,Acu-Link.com,2013-11-01 04:28:00,
2013-11-01 00:43:00,63.1,61.9,28.60,East,90,9.9,-999.0,96,-99.99,,,0.00,Acu-Link.com,2013-11-01 04:43:00,
2013-11-01 00:58:00,63.9,62.7,28.59,North,0,3.7,-999.0,96,-99.99,,,0.00,Acu-Link.com,2013-11-01 04:58:00,
2013-11-01 01:14:00,64.0,62.5,28.59,ESE,112,2.2,-999.0,95,-99.99,,,0.00,Acu-Link.com,2013-11-01 05:14:00,
2013-11-01 01:29:00,64.2,62.4,28.58,West,270,6.3,-999.0,94,-99.99,,,0.00,Acu-Link.com,2013-11-01 05:29:00,
2013-11-01 01:44:00,64.8,62.7,28.57,SSE,157,3.7,-999.0,93,-99.99,,,0.00,Acu-Link.com,2013-11-01 05:44:00,
2013-11-01 01:59:00,65.1,62.7,28.57,ESE,112,4.7,-999.0,92,-99.99,,,0.00,Acu-Link.com,2013-11-01 05:59:00,
2013-11-01 02:14:00,65.1,62.7,28.56,ESE,112,2.2,-999.0,92,-99.99,,,0.00,Acu-Link.com,2013-11-01 06:14:00,
2013-11-01 02:29:00,65.1,62.7,28.55,ESE,112,1.7,-999.0,92,-99.99,,,0.00,Acu-Link.com,2013-11-01 06:29:00,
2013-11-01 02:45:00,65.3,62.6,28.55,WNW,292,7.3,-999.0,91,-99.99,,,0.00,Acu-Link.com,2013-11-01 06:45:00,
2013-11-01 03:01:00,65.1,62.4,28.54,WSW,247,6.8,-999.0,91,-99.99,,,0.00,Acu-Link.com,2013-11-01 07:01:00,
2013-11-01 03:16:00,65.1,62.4,28.53,SW,225,4.7,-999.0,91,-99.99,,,0.00,Acu-Link.com,2013-11-01 07:16:00,
2013-11-01 03:32:00,65.7,62.7,28.52,NNE,22,2.2,-999.0,90,-99.99,,,0.00,Acu-Link.com,2013-11-01 07:32:00,
2013-11-01 03:47:00,65.7,62.4,28.52,West,270,7.3,-999.0,89,-99.99,,,0.00,Acu-Link.com,2013-11-01 07:47:00,
2013-11-01 04:02:00,65.5,62.5,28.51,North,0,3.7,-999.0,90,-99.99,,,0.00,Acu-Link.com,2013-11-01 08:02:00,
2013-11-01 04:17:00,66.2,62.9,28.50,SSW,202,1.7,-999.0,89,-99.99,,,0.00,Acu-Link.com,2013-11-01 08:17:00,
2013-11-01 04:33:00,67.1,63.1,28.49,ESE,112,4.7,-999.0,87,-99.99,,,0.00,Acu-Link.com,2013-11-01 08:33:00,
2013-11-01 04:48:00,67.1,62.8,28.48,NNW,337,4.2,-999.0,86,-99.99,,,0.00,Acu-Link.com,2013-11-01 08:48:00,
2013-11-01 05:03:00,67.5,62.8,28.47,East,90,4.7,-999.0,85,-99.99,,,0.00,Acu-Link.com,2013-11-01 09:03:00,
2013-11-01 05:18:00,67.6,62.9,28.47,ESE,112,4.7,-999.0,85,-99.99,,,0.00,Acu-Link.com,2013-11-01 09:18:00,
2013-11-01 05:33:00,68.0,63.3,28.46,SSE,157,7.8,-999.0,85,-99.99,,,0.00,Acu-Link.com,2013-11-01 09:33:00,
2013-11-01 05:48:00,67.8,63.5,28.45,NNE,22,6.8,-999.0,86,-99.99,,,0.00,Acu-Link.com,2013-11-01 09:48:00,
2013-11-01 06:03:00,68.0,63.6,28.44,WNW,292,3.2,-999.0,86,-99.99,,,0.00,Acu-Link.com,2013-11-01 10:03:00,
2013-11-01 06:19:00,68.5,63.8,28.43,East,90,6.3,-999.0,85,-99.99,,,0.00,Acu-Link.com,2013-11-01 10:19:00,
2013-11-01 06:34:00,69.4,64.3,28.43,ESE,112,7.3,-999.0,84,-99.99,,,0.00,Acu-Link.com,2013-11-01 10:34:00,
2013-11-01 06:49:00,69.6,64.5,28.43,ENE,67,5.3,-999.0,84,-99.99,,,0.00,Acu-Link.com,2013-11-01 10:49:00,
2013-11-01 07:04:00,69.6,64.5,28.43,ESE,112,8.9,-999.0,84,-99.99,,,0.00,Acu-Link.com,2013-11-01 11:04:00,
2013-11-01 07:19:00,68.2,65.1,28.42,East,90,3.2,-999.0,90,-99.99,,,0.01,Acu-Link.com,2013-11-01 11:19:00,
2013-11-01 07:34:00,68.0,64.6,28.41,West,270,5.3,-999.0,89,-99.99,,,0.02,Acu-Link.com,2013-11-01 11:34:00,
2013-11-01 07:49:00,68.4,64.7,28.41,East,90,4.7,-999.0,88,-99.99,,,0.02,Acu-Link.com,2013-11-01 11:49:00,
2013-11-01 08:04:00,68.0,64.6,28.41,ESE,112,2.7,-999.0,89,-99.99,,,0.02,Acu-Link.com,2013-11-01 12:04:00,
2013-11-01 08:20:00,68.4,64.7,28.40,ENE,67,7.3,-999.0,88,-99.99,,,0.02,Acu-Link.com,2013-11-01 12:20:00,
2013-11-01 08:35:00,67.8,64.4,28.39,North,0,2.7,-999.0,89,-99.99,,,0.04,Acu-Link.com,2013-11-01 12:35:00,
2013-11-01 08:50:00,68.0,64.6,28.40,North,0,3.2,-999.0,89,-99.99,,,0.04,Acu-Link.com,2013-11-01 12:50:00,
2013-11-01 09:05:00,68.4,64.7,28.40,WNW,292,3.2,-999.0,88,-99.99,,,0.04,Acu-Link.com,2013-11-01 13:05:00,
2013-11-01 09:20:00,68.5,64.5,28.41,East,90,3.7,-999.0,87,-99.99,,,0.04,Acu-Link.com,2013-11-01 13:20:00,
2013-11-01 09:35:00,69.1,64.7,28.40,NNE,22,7.8,-999.0,86,-99.99,,,0.04,Acu-Link.com,2013-11-01 13:35:00,
2013-11-01 09:51:00,68.5,64.5,28.40,West,270,7.3,-999.0,87,-99.99,,,0.04,Acu-Link.com,2013-11-01 13:51:00,
2013-11-01 10:06:00,64.4,62.3,28.44,West,270,28.4,-999.0,93,-99.99,,,0.05,Acu-Link.com,2013-11-01 14:06:00,
2013-11-01 10:21:00,61.7,59.7,28.44,West,270,13.0,-999.0,93,-99.99,,,0.12,Acu-Link.com,2013-11-01 14:21:00,
2013-11-01 10:36:00,61.5,59.5,28.44,West,270,9.4,-999.0,93,-99.99,,,0.12,Acu-Link.com,2013-11-01 14:36:00,
2013-11-01 10:51:00,61.9,59.5,28.43,West,270,7.3,-999.0,92,-99.99,,,0.12,Acu-Link.com,2013-11-01 14:51:00,
2013-11-01 11:07:00,62.4,59.7,28.44,West,270,11.9,-999.0,91,-99.99,,,0.12,Acu-Link.com,2013-11-01 15:07:00,
2013-11-01 11:22:00,63.1,59.2,28.44,WNW,292,11.9,-999.0,87,-99.99,,,0.12,Acu-Link.com,2013-11-01 15:22:00,
2013-11-01 11:37:00,63.3,59.0,28.43,West,270,6.3,-999.0,86,-99.99,,,0.12,Acu-Link.com,2013-11-01 15:37:00,
2013-11-01 11:52:00,63.7,59.1,28.42,West,270,7.8,-999.0,85,-99.99,,,0.12,Acu-Link.com,2013-11-01 15:52:00,
2013-11-01 12:07:00,63.9,59.3,28.42,NNE,22,6.8,-999.0,85,-99.99,,,0.12,Acu-Link.com,2013-11-01 16:07:00,
2013-11-01 12:22:00,64.0,58.4,28.42,West,270,8.3,-999.0,82,-99.99,,,0.12,Acu-Link.com,2013-11-01 16:22:00,
2013-11-01 12:37:00,63.9,58.6,28.42,NW,315,9.9,-999.0,83,-99.99,,,0.12,Acu-Link.com,2013-11-01 16:37:00,
2013-11-01 12:52:00,64.0,58.4,28.41,West,270,8.3,-999.0,82,-99.99,,,0.12,Acu-Link.com,2013-11-01 16:52:00,
2013-11-01 13:08:00,64.2,58.2,28.40,West,270,9.4,-999.0,81,-99.99,,,0.12,Acu-Link.com,2013-11-01 17:08:00,
2013-11-01 13:23:00,64.2,58.6,28.40,WSW,247,7.3,-999.0,82,-99.99,,,0.12,Acu-Link.com,2013-11-01 17:23:00,
2013-11-01 13:38:00,64.9,58.6,28.40,WSW,247,6.8,-999.0,80,-99.99,,,0.12,Acu-Link.com,2013-11-01 17:38:00,
2013-11-01 13:53:00,65.5,58.8,28.40,WSW,247,6.8,-999.0,79,-99.99,,,0.12,Acu-Link.com,2013-11-01 17:53:00,
2013-11-01 14:08:00,66.2,58.0,28.40,West,270,11.4,-999.0,75,-99.99,,,0.12,Acu-Link.com,2013-11-01 18:08:00,
2013-11-01 14:23:00,66.9,58.3,28.39,South,180,10.4,-999.0,74,-99.99,,,0.12,Acu-Link.com,2013-11-01 18:23:00,
2013-11-01 14:38:00,67.1,57.4,28.40,NNE,22,9.4,-999.0,71,-99.99,,,0.12,Acu-Link.com,2013-11-01 18:38:00,
2013-11-01 14:53:00,67.5,57.8,28.40,NNW,337,7.3,-999.0,71,-99.99,,,0.12,Acu-Link.com,2013-11-01 18:53:00,
2013-11-01 15:09:00,68.0,57.0,28.39,West,270,11.9,-999.0,68,-99.99,,,0.12,Acu-Link.com,2013-11-01 19:09:00,
2013-11-01 15:24:00,68.0,56.6,28.39,WSW,247,8.9,-999.0,67,-99.99,,,0.12,Acu-Link.com,2013-11-01 19:24:00,
2013-11-01 15:39:00,68.5,55.8,28.40,West,270,8.3,-999.0,64,-99.99,,,0.12,Acu-Link.com,2013-11-01 19:39:00,
2013-11-01 15:55:00,68.4,55.7,28.39,West,270,8.3,-999.0,64,-99.99,,,0.12,Acu-Link.com,2013-11-01 19:55:00,
2013-11-01 16:10:00,68.4,55.7,28.40,West,270,8.9,-999.0,64,-99.99,,,0.12,Acu-Link.com,2013-11-01 20:10:00,
2013-11-01 16:25:00,68.0,56.2,28.40,West,270,7.3,-999.0,66,-99.99,,,0.12,Acu-Link.com,2013-11-01 20:25:00,
2013-11-01 16:40:00,67.8,55.6,28.39,WSW,247,6.8,-999.0,65,-99.99,,,0.12,Acu-Link.com,2013-11-01 20:40:00,
2013-11-01 16:55:00,68.5,55.4,28.39,West,270,7.8,-999.0,63,-99.99,,,0.12,Acu-Link.com,2013-11-01 20:55:00,
2013-11-01 17:10:00,68.5,55.4,28.40,NNE,22,4.7,-999.0,63,-99.99,,,0.12,Acu-Link.com,2013-11-01 21:10:00,
2013-11-01 17:25:00,68.2,55.5,28.42,West,270,9.4,-999.0,64,-99.99,,,0.12,Acu-Link.com,2013-11-01 21:25:00,
2013-11-01 17:41:00,67.5,55.7,28.41,WSW,247,7.8,-999.0,66,-99.99,,,0.12,Acu-Link.com,2013-11-01 21:41:00,
2013-11-01 17:56:00,66.9,56.0,28.42,West,270,4.7,-999.0,68,-99.99,,,0.12,Acu-Link.com,2013-11-01 21:56:00,
2013-11-01 18:11:00,66.7,56.2,28.43,West,270,5.3,-999.0,69,-99.99,,,0.12,Acu-Link.com,2013-11-01 22:11:00,
2013-11-01 18:26:00,65.8,57.6,28.43,WNW,292,4.7,-999.0,75,-99.99,,,0.12,Acu-Link.com,2013-11-01 22:26:00,
2013-11-01 18:42:00,65.1,57.7,28.44,West,270,7.8,-999.0,77,-99.99,,,0.12,Acu-Link.com,2013-11-01 22:42:00,
2013-11-01 18:57:00,64.9,57.9,28.45,WNW,292,1.7,-999.0,78,-99.99,,,0.12,Acu-Link.com,2013-11-01 22:57:00,
2013-11-01 19:12:00,64.9,57.9,28.46,WNW,292,8.9,-999.0,78,-99.99,,,0.12,Acu-Link.com,2013-11-01 23:12:00,
2013-11-01 19:27:00,64.6,57.6,28.45,West,270,6.8,-999.0,78,-99.99,,,0.12,Acu-Link.com,2013-11-01 23:27:00,
2013-11-01 19:42:00,64.2,57.5,28.46,West,270,6.8,-999.0,79,-99.99,,,0.12,Acu-Link.com,2013-11-01 23:42:00,
2013-11-01 19:57:00,64.2,57.5,28.47,NNW,337,4.7,-999.0,79,-99.99,,,0.12,Acu-Link.com,2013-11-01 23:57:00,
2013-11-01 20:12:00,64.2,57.5,28.47,NNW,337,10.4,-999.0,79,-99.99,,,0.12,Acu-Link.com,2013-11-02 00:12:00,
2013-11-01 20:27:00,64.2,57.5,28.48,West,270,6.3,-999.0,79,-99.99,,,0.12,Acu-Link.com,2013-11-02 00:27:00,
2013-11-01 20:42:00,64.2,57.5,28.48,West,270,3.2,-999.0,79,-99.99,,,0.12,Acu-Link.com,2013-11-02 00:42:00,
2013-11-01 20:58:00,63.3,57.4,28.48,WNW,292,3.7,-999.0,81,-99.99,,,0.12,Acu-Link.com,2013-11-02 00:58:00,
2013-11-01 21:13:00,63.0,57.1,28.48,West,270,5.8,-999.0,81,-99.99,,,0.12,Acu-Link.com,2013-11-02 01:13:00,
2013-11-01 21:28:00,62.8,57.2,28.49,West,270,2.7,-999.0,82,-99.99,,,0.12,Acu-Link.com,2013-11-02 01:28:00,
2013-11-01 21:43:00,62.6,57.7,28.50,West,270,6.8,-999.0,84,-99.99,,,0.12,Acu-Link.com,2013-11-02 01:43:00,
2013-11-01 21:59:00,61.9,57.7,28.50,West,270,3.2,-999.0,86,-99.99,,,0.12,Acu-Link.com,2013-11-02 01:59:00,
2013-11-01 22:14:00,61.7,57.8,28.50,ENE,67,0.0,-999.0,87,-99.99,,,0.12,Acu-Link.com,2013-11-02 02:14:00,
2013-11-01 22:29:00,61.5,57.9,28.52,West,270,2.2,-999.0,88,-99.99,,,0.12,Acu-Link.com,2013-11-02 02:29:00,
2013-11-01 22:45:00,61.3,58.3,28.53,West,270,3.7,-999.0,90,-99.99,,,0.12,Acu-Link.com,2013-11-02 02:45:00,
2013-11-01 23:00:00,61.3,58.6,28.53,West,270,4.2,-999.0,91,-99.99,,,0.12,Acu-Link.com,2013-11-02 03:00:00,
2013-11-01 23:15:00,61.3,58.6,28.53,WSW,247,2.7,-999.0,91,-99.99,,,0.12,Acu-Link.com,2013-11-02 03:15:00,
2013-11-01 23:30:00,60.8,58.5,28.51,WSW,247,5.3,-999.0,92,-99.99,,,0.12,Acu-Link.com,2013-11-02 03:30:00,
2013-11-01 23:45:00,61.0,58.7,28.52,ENE,67,0.0,-999.0,92,-99.99,,,0.12,Acu-Link.com,2013-11-02 03:45:00,